DW3765 Weather Reports


time (UTC)temp
C
wind
direction
speed
KPH
gust
KPH
rain 1hr
cm
rain 24hr
cm
rain mn
cm
humidity
%
barometer
mb
20260510105159 20 175 4.8 11.3 0.00 0.03 0.00 86 1012.1
20260510104656 20 155 4.8 11.3 0.00 0.03 0.00 86 1012.1
20260510104153 20 172 0.0 12.9 0.00 0.03 0.00 86 1012.1
20260510103141 20 139 8.0 12.9 0.00 0.03 0.00 86 1012.1
20260510102655 20 157 6.4 14.5 0.00 0.03 0.00 86 1012.2
20260510102223 20 151 9.7 14.5 0.00 0.03 0.00 86 1012.2
20260510101723 20 157 8.0 14.5 0.00 0.03 0.00 87 1012.2
20260510101212 20 148 8.0 14.5 0.00 0.03 0.00 87 1012.2
20260510100627 20 164 6.4 12.9 0.00 0.03 0.00 87 1012.2
20260510100139 20 136 3.2 8.0 0.00 0.03 0.00 87 1012.3
20260510095653 20 142 1.6 8.0 0.00 0.03 0.00 87 1012.4
20260510094643 20 142 1.6 3.2 0.00 0.03 0.00 86 1012.4
20260510094154 20 142 0.0 0.0 0.00 0.03 0.00 86 1012.4
20260510093146 20 142 0.0 0.0 0.00 0.03 0.00 85 1012.4
20260510092708 21 142 0.0 0.0 0.00 0.03 0.00 85 1012.4
20260510092131 21 142 0.0 0.0 0.00 0.03 0.00 84 1012.2
20260510091644 21 142 0.0 0.0 0.00 0.03 0.00 84 1012.2
20260510091211 21 142 0.0 0.0 0.00 0.03 0.00 84 1012.2
20260510090705 21 142 0.0 3.2 0.00 0.03 0.00 83 1012.2
20260510090220 21 142 0.0 3.2 0.00 0.03 0.00 83 1012.2
20260510085641 21 141 0.0 6.4 0.00 0.03 0.00 83 1012.3
20260510085158 21 141 0.0 9.7 0.00 0.03 0.00 84 1012.2
20260510084147 21 136 3.2 9.7 0.00 0.03 0.00 84 1012.1
20260510083702 21 138 3.2 9.7 0.00 0.03 0.00 84 1012.1
20260510083207 21 106 4.8 9.7 0.00 0.03 0.00 84 1012.2
20260510082723 21 109 1.6 9.7 0.00 0.03 0.00 84 1012.1
20260510082132 21 139 4.8 9.7 0.00 0.03 0.00 84 1012.0
20260510081652 21 118 4.8 11.3 0.00 0.03 0.00 83 1012.1
20260510080741 21 117 4.8 8.0 0.00 0.03 0.00 83 1012.0
20260510080243 21 155 3.2 4.8 0.00 0.03 0.00 83 1011.9
20260510075638 22 156 1.6 3.2 0.00 0.03 0.00 83 1011.9
20260510075156 22 156 0.0 1.6 0.00 0.03 0.00 82 1012.0
20260510074219 22 156 0.0 3.2 0.00 0.03 0.00 82 1011.9
20260510073626 22 156 0.0 6.4 0.00 0.03 0.00 82 1011.9
20260510073230 22 156 1.6 6.4 0.00 0.03 0.00 81 1012.0
20260510072707 22 156 3.2 6.4 0.00 0.03 0.00 81 1012.0
20260510072201 22 156 1.6 3.2 0.00 0.03 0.00 81 1012.1
20260510071709 22 157 1.6 4.8 0.00 0.03 0.00 81 1012.1
20260510071203 22 157 0.0 6.4 0.00 0.03 0.00 81 1012.0
20260510070716 22 156 1.6 8.0 0.00 0.03 0.00 81 1011.9
20260510070125 22 157 3.2 8.0 0.00 0.03 0.00 81 1012.0
20260510065634 22 157 3.2 9.7 0.00 0.03 0.00 81 1012.0
20260510065138 22 167 4.8 9.7 0.00 0.03 0.00 81 1012.0
20260510064625 22 160 4.8 11.3 0.00 0.03 0.00 82 1012.0
20260510064125 22 147 3.2 8.0 0.00 0.03 0.00 82 1012.0
20260510063633 22 169 3.2 8.0 0.00 0.03 0.00 82 1012.0
20260510063142 22 157 3.2 6.4 0.00 0.03 0.00 82 1012.0
20260510062648 22 158 1.6 3.2 0.00 0.03 0.00 81 1012.0
20260510062126 23 158 0.0 0.0 0.00 0.03 0.00 80 1011.9
20260510061635 23 158 0.0 0.0 0.00 0.03 0.00 80 1011.9
20260510061144 23 158 0.0 1.6 0.00 0.03 0.00 80 1012.0
20260510060623 23 158 0.0 6.4 0.00 0.03 0.00 79 1012.1
20260510060133 23 158 3.2 8.0 0.00 0.03 0.00 79 1012.1
20260510055701 23 148 3.2 11.3 0.00 0.03 0.00 79 1012.0
20260510055128 23 140 6.4 11.3 0.00 0.03 0.00 79 1012.0
20260510054625 23 119 6.4 11.3 0.00 0.03 0.00 79 1012.0
20260510054134 23 108 6.4 12.9 0.00 0.03 0.00 79 1011.9
20260510053623 23 134 6.4 12.9 0.00 0.03 0.00 78 1011.9
20260510053132 23 146 6.4 12.9 0.00 0.03 0.00 78 1012.0
20260510052627 23 130 4.8 11.3 0.00 0.03 0.00 78 1011.9
20260510052136 23 146 6.4 11.3 0.00 0.03 0.00 78 1011.9
20260510051625 23 142 3.2 9.7 0.00 0.03 0.00 78 1011.8
20260510051125 23 151 3.2 9.7 0.00 0.03 0.00 78 1011.8
20260510050634 23 117 4.8 11.3 0.00 0.03 0.00 78 1011.7
20260510050142 23 138 4.8 11.3 0.00 0.03 0.00 78 1011.8
20260510045648 23 139 4.8 9.7 0.00 0.03 0.03 78 1011.7
20260510045202 23 139 4.8 11.3 0.00 0.03 0.03 78 1011.6
20260510044656 23 145 4.8 11.3 0.00 0.03 0.03 79 1011.5
20260510044221 23 140 6.4 11.3 0.00 0.03 0.03 79 1011.5
20260510043638 23 132 3.2 11.3 0.00 0.03 0.03 79 1011.6
20260510043202 23 129 3.2 8.0 0.00 0.03 0.03 79 1011.6
20260510042657 23 117 0.0 3.2 0.00 0.03 0.03 78 1011.5
20260510042211 23 130 0.0 3.2 0.00 0.03 0.03 78 1011.6
20260510041633 23 130 1.6 3.2 0.00 0.03 0.03 78 1011.5
20260510041152 23 130 0.0 3.2 0.00 0.03 0.03 78 1011.4
20260510040134 23 128 0.0 6.4 0.00 0.03 0.03 77 1011.2
20260510035647 23 128 1.6 6.4 0.00 0.03 0.03 77 1011.2
20260510035204 23 128 1.6 6.4 0.00 0.03 0.03 77 1011.2
20260510034703 23 155 0.0 1.6 0.00 0.03 0.03 77 1011.3
20260510034201 23 155 0.0 3.2 0.00 0.03 0.03 77 1011.2
20260510033715 24 155 1.6 3.2 0.00 0.03 0.03 77 1011.2
20260510033212 24 155 0.0 1.6 0.00 0.03 0.03 76 1011.2
20260510032705 24 155 0.0 1.6 0.00 0.03 0.03 75 1011.1
20260510032150 25 155 0.0 0.0 0.00 0.03 0.03 75 1011.1
20260510031648 25 155 0.0 0.0 0.00 0.03 0.03 74 1011.1
20260510031158 25 155 0.0 0.0 0.00 0.03 0.03 73 1011.0
20260510030702 25 156 0.0 6.4 0.00 0.03 0.03 72 1011.0
20260510030219 25 156 0.0 6.4 0.00 0.03 0.03 72 1010.9
20260510025630 25 140 0.0 6.4 0.00 0.03 0.03 72 1010.8
20260510025151 25 140 1.6 8.0 0.00 0.03 0.03 72 1010.8
20260510024708 25 140 1.6 8.0 0.00 0.03 0.03 72 1010.8
20260510024230 26 132 4.8 11.3 0.00 0.03 0.03 71 1010.7
20260510023700 26 118 4.8 11.3 0.00 0.03 0.03 71 1010.6
20260510023208 26 107 3.2 9.7 0.00 0.03 0.03 71 1010.7
20260510022722 26 90 6.4 11.3 0.00 0.03 0.03 71 1010.7
20260510022135 26 81 6.4 12.9 0.00 0.03 0.03 70 1010.5
20260510021647 26 98 9.7 12.9 0.00 0.03 0.03 70 1010.4
20260510021141 26 83 6.4 14.5 0.00 0.03 0.03 69 1010.4
20260510020706 26 100 4.8 14.5 0.00 0.03 0.03 69 1010.4
20260510020220 26 88 4.8 12.9 0.00 0.03 0.03 68 1010.4
20260510015738 26 105 1.6 12.9 0.00 0.03 0.03 67 1010.2
20260510015128 26 109 3.2 16.1 0.00 0.03 0.03 66 1010.2
20260510014648 26 102 6.4 14.5 0.00 0.03 0.03 65 1010.2
20260510014207 26 101 6.4 14.5 0.00 0.03 0.03 64 1010.1
20260510013719 26 157 6.4 14.5 0.00 0.03 0.03 63 1010.0
20260510013135 27 106 8.0 14.5 0.00 0.03 0.03 61 1009.9
20260510012700 27 102 6.4 14.5 0.00 0.03 0.03 61 1009.9
20260510012215 27 69 9.7 17.7 0.00 0.03 0.03 61 1009.8
20260510011717 27 75 11.3 17.7 0.00 0.03 0.03 62 1009.8
20260510011213 27 90 8.0 16.1 0.00 0.03 0.03 62 1009.7
20260510010625 27 124 8.0 16.1 0.00 0.03 0.03 61 1009.6
20260510010143 27 137 4.8 14.5 0.00 0.03 0.03 61 1009.4
20260510005221 28 98 9.7 16.1 0.00 0.03 0.03 62 1009.2
20260510004721 28 101 8.0 14.5 0.00 0.03 0.03 61 1009.2
20260510004128 28 97 8.0 16.1 0.00 0.03 0.03 60 1009.0
20260510003653 28 103 6.4 16.1 0.00 0.03 0.03 59 1009.0
20260510002702 28 78 8.0 16.1 0.00 0.03 0.03 56 1009.0
20260510002156 28 100 4.8 16.1 0.00 0.03 0.03 54 1008.9
20260510001653 28 101 6.4 14.5 0.00 0.03 0.03 52 1008.9
20260510001130 28 101 8.0 16.1 0.00 0.03 0.03 54 1008.9
20260510000628 28 88 9.7 16.1 0.00 0.03 0.03 60 1008.9
20260510000148 28 115 4.8 9.7 0.00 0.03 0.03 61 1008.7
20260509235626 28 107 0.0 8.0 0.00 0.03 0.03 61 1008.5
20260509235142 28 102 3.2 8.0 0.00 0.03 0.03 61 1008.6
20260509234637 28 107 3.2 8.0 0.00 0.03 0.03 60 1008.6
20260509234158 29 81 3.2 9.7 0.00 0.03 0.03 59 1008.5
20260509233700 29 80 4.8 11.3 0.00 0.03 0.03 59 1008.5
20260509233216 29 110 6.4 12.9 0.00 0.03 0.03 59 1008.6
20260509232722 29 137 6.4 19.3 0.00 0.03 0.03 58 1008.7
20260509232131 30 107 9.7 19.3 0.00 0.03 0.03 58 1008.6
20260509231652 30 107 11.3 19.3 0.00 0.03 0.03 57 1008.6
20260509231149 30 127 9.7 20.9 0.00 0.03 0.03 57 1008.6
20260509230705 30 98 9.7 24.1 0.00 0.03 0.03 57 1008.8
20260509230207 30 101 12.9 24.1 0.00 0.03 0.03 55 1008.9
20260509225722 30 96 12.9 24.1 0.00 0.03 0.03 56 1008.6
20260509225222 30 91 11.3 29.0 0.00 0.03 0.03 55 1008.6
20260509224631 31 93 14.5 29.0 0.00 0.03 0.03 53 1008.7
20260509224139 32 88 11.3 17.7 0.00 0.03 0.03 51 1008.8
20260509223136 32 225 1.6 3.2 0.00 0.03 0.03 49 1008.7
20260509222650 32 263 0.0 6.4 0.00 0.03 0.03 51 1008.7
20260509222211 32 263 1.6 11.3 0.00 0.03 0.03 48 1008.6
20260509221722 32 264 1.6 11.3 0.00 0.03 0.03 48 1008.6
20260509221200 33 323 1.6 8.0 0.00 0.03 0.03 50 1008.7
20260509220700 32 336 1.6 6.4 0.00 0.03 0.03 51 1008.7
20260509220227 31 30 0.0 1.6 0.00 0.03 0.03 52 1008.8
20260509215717 31 154 0.0 1.6 0.00 0.03 0.03 55 1008.8
20260509215133 31 154 0.0 6.4 0.00 0.03 0.03 53 1008.7
20260509214743 31 154 0.0 6.4 0.00 0.03 0.03 52 1008.7
20260509214220 31 154 1.6 14.5 0.00 0.03 0.03 53 1008.9
20260509213631 32 161 8.0 14.5 0.00 0.03 0.03 51 1008.8
20260509213143 32 255 6.4 11.3 0.00 0.03 0.03 52 1008.9
20260509212707 32 200 8.0 11.3 0.00 0.03 0.03 49 1008.9
20260509212140 32 177 0.0 12.9 0.00 0.03 0.03 51 1008.9
20260509211653 32 238 1.6 16.1 0.00 0.03 0.03 54 1008.9
20260509211148 32 246 3.2 16.1 0.00 0.03 0.03 54 1008.9
20260509210647 31 167 3.2 14.5 0.00 0.03 0.03 53 1009.0
20260509205720 31 235 0.0 16.1 0.00 0.03 0.03 53 1009.1
20260509205216 31 223 9.7 16.1 0.00 0.03 0.03 54 1009.2
20260509204239 32 299 3.2 9.7 0.00 0.03 0.03 54 1009.5
20260509203637 31 277 4.8 16.1 0.00 0.03 0.03 52 1009.5
20260509203138 31 241 9.7 16.1 0.00 0.03 0.03 54 1009.5
20260509202635 30 176 6.4 12.9 0.00 0.03 0.03 56 1009.6
20260509202142 31 163 1.6 19.3 0.00 0.03 0.03 55 1009.6
20260509201706 31 165 9.7 19.3 0.00 0.03 0.03 54 1009.6
20260509201221 32 226 4.8 11.3 0.00 0.03 0.03 53 1009.6
20260509200146 31 232 4.8 19.3 0.00 0.03 0.03 59 1009.9
20260509195659 31 222 9.7 20.9 0.00 0.03 0.03 56 1009.8
20260509195213 31 221 11.3 20.9 0.00 0.03 0.03 56 1010.0
20260509194714 31 242 4.8 19.3 0.00 0.03 0.03 57 1010.1
20260509194210 31 173 6.4 12.9 0.00 0.03 0.03 57 1010.2
20260509193721 30 193 8.0 22.5 0.00 0.03 0.03 57 1010.4
20260509193241 31 207 6.4 22.5 0.00 0.03 0.03 57 1010.5
20260509192630 31 198 12.9 20.9 0.00 0.03 0.03 57 1010.6
20260509192158 31 222 3.2 14.5 0.00 0.03 0.03 58 1010.6
20260509191709 31 203 9.7 14.5 0.00 0.03 0.03 59 1010.7
20260509191221 30 209 11.3 14.5 0.00 0.03 0.03 59 1010.8
20260509190625 30 269 1.6 14.5 0.00 0.03 0.03 60 1010.8
20260509190154 30 300 9.7 14.5 0.00 0.03 0.03 60 1010.8
20260509185130 30 255 6.4 16.1 0.00 0.03 0.03 60 1010.8
20260509184653 30 288 6.4 12.9 0.00 0.03 0.03 62 1010.9
20260509183632 30 274 9.7 19.3 0.00 0.03 0.03 62 1011.0
20260509183154 30 219 8.0 17.7 0.00 0.03 0.03 61 1011.0
20260509182706 30 242 8.0 19.3 0.00 0.03 0.03 62 1011.0
20260509182218 30 228 6.4 19.3 0.00 0.03 0.03 61 1011.1
20260509181719 30 171 8.0 19.3 0.00 0.03 0.03 62 1011.2
20260509181214 30 232 4.8 14.5 0.00 0.03 0.03 61 1011.2
20260509180708 29 282 6.4 16.1 0.00 0.03 0.03 64 1011.3
20260509180202 28 181 4.8 16.1 0.00 0.03 0.03 64 1011.2
20260509175714 28 254 3.2 14.5 0.00 0.03 0.03 67 1011.4
20260509175136 28 238 4.8 14.5 0.00 0.03 0.03 68 1011.4
20260509174653 28 263 6.4 12.9 0.00 0.03 0.03 68 1011.5
20260509173731 29 202 6.4 14.5 0.00 0.03 0.03 65 1011.6
20260509173123 28 290 4.8 12.9 0.00 0.03 0.03 69 1011.7
20260509172637 28 217 1.6 16.1 0.00 0.03 0.03 67 1011.8
20260509172154 28 260 3.2 19.3 0.00 0.03 0.03 71 1011.7
20260509171130 28 267 4.8 16.1 0.00 0.03 0.03 72 1011.8
20260509170625 27 272 11.3 16.1 0.00 0.03 0.03 72 1011.7
20260509170141 27 265 4.8 14.5 0.00 0.03 0.03 73 1011.9
20260509165625 27 232 4.8 11.3 0.00 0.03 0.03 72 1011.9
20260509165138 27 223 6.4 12.9 0.00 0.03 0.03 73 1011.9
20260509164647 27 243 8.0 12.9 0.00 0.03 0.03 74 1011.9
20260509163638 27 300 4.8 9.7 0.00 0.03 0.03 74 1011.9
20260509163156 26 271 1.6 14.5 0.00 0.03 0.03 82 1012.0
20260509162720 26 271 9.7 14.5 0.03 0.03 0.03 80 1012.0
20260509162209 26 340 0.0 9.7 0.03 0.03 0.03 80 1012.1
20260509161722 26 153 1.6 6.4 0.03 0.03 0.03 81 1012.1
20260509161140 26 153 3.2 6.4 0.03 0.03 0.03 80 1012.1
20260509160653 26 169 0.0 8.0 0.03 0.03 0.03 82 1012.0
20260509155642 25 178 1.6 12.9 0.03 0.03 0.03 86 1012.0
20260509155155 25 166 8.0 16.1 0.03 0.03 0.03 88 1012.1
20260509154126 24 217 6.4 19.3 0.03 0.03 0.03 92 1012.0
20260509153640 23 207 8.0 22.5 0.03 0.03 0.03 93 1011.9
20260509153202 23 138 14.5 22.5 0.03 0.03 0.03 95 1011.7
20260509152726 23 138 6.4 12.9 0.00 0.00 0.00 95 1012.0
20260509152201 22 188 9.7 12.9 0.00 0.00 0.00 95 1012.4
20260509151654 23 144 4.8 12.9 0.00 0.00 0.00 95 1012.5
20260509150642 22 167 6.4 9.7 0.00 0.00 0.00 96 1012.3
20260509150155 22 168 0.0 8.0 0.00 0.00 0.00 96 1012.6
20260509145150 22 184 4.8 8.0 0.00 0.00 0.00 96 1012.9
20260509144643 22 184 4.8 8.0 0.00 0.00 0.00 96 1012.7
20260509143634 22 164 3.2 9.7 0.00 0.00 0.00 96 1012.8
20260509143144 22 144 6.4 9.7 0.00 0.00 0.00 96 1012.8
20260509142705 22 127 6.4 9.7 0.00 0.00 0.00 96 1012.8
20260509142158 22 57 3.2 8.0 0.00 0.00 0.00 96 1012.6
20260509141710 22 20 1.6 4.8 0.00 0.00 0.00 96 1012.4
20260509141215 22 19 1.6 6.4 0.00 0.00 0.00 96 1012.1
20260509140225 22 19 0.0 0.0 0.00 0.00 0.00 97 1011.6
20260509135659 22 19 0.0 0.0 0.00 0.00 0.00 97 1011.4
20260509135154 22 19 0.0 3.2 0.00 0.00 0.00 96 1011.4
20260509134144 22 19 0.0 3.2 0.00 0.00 0.00 97 1011.6
20260509133655 22 136 0.0 0.0 0.00 0.00 0.00 97 1011.7
20260509133152 22 135 0.0 0.0 0.00 0.00 0.00 97 1011.7
20260509132645 22 135 0.0 0.0 0.00 0.00 0.00 96 1012.0
20260509132141 22 135 0.0 3.2 0.00 0.00 0.00 96 1011.9
20260509131642 22 136 1.6 3.2 0.00 0.00 0.00 96 1011.9
20260509131138 22 136 0.0 8.0 0.00 0.00 0.00 96 1011.8
20260509130129 22 69 1.6 6.4 0.00 0.00 0.00 97 1011.7
20260509125710 22 91 0.0 6.4 0.00 0.00 0.00 96 1011.8
20260509125204 22 92 3.2 9.7 0.00 0.00 0.00 96 1011.5
20260509124706 22 69 4.8 9.7 0.00 0.00 0.00 96 1011.6
20260509124219 22 360 0.0 6.4 0.00 0.00 0.00 96 1011.7
20260509123724 22 360 0.0 9.7 0.00 0.00 0.00 96 1011.7
20260509123216 22 360 3.2 9.7 0.00 0.00 0.00 96 1011.6
20260509122630 22 360 3.2 9.7 0.00 0.00 0.00 96 1011.9
20260509122129 22 40 3.2 9.7 0.00 0.00 0.00 96 1011.6
20260509121652 22 31 4.8 9.7 0.00 0.00 0.00 96 1011.7
20260509120631 22 88 6.4 9.7 0.00 0.00 0.00 96 1011.6
20260509120155 22 46 1.6 9.7 0.00 0.00 0.00 96 1011.7
20260509115704 22 38 4.8 11.3 0.00 0.00 0.00 96 1011.8
20260509115216 22 5 3.2 14.5 0.00 0.00 0.00 96 1011.9
20260509114634 22 9 8.0 14.5 0.00 0.00 0.00 96 1012.0
20260509114152 22 39 8.0 19.3 0.00 0.00 0.00 96 1012.0
20260509113704 22 5 6.4 19.3 0.00 0.00 0.00 96 1012.0
20260509113227 22 13 6.4 17.7 0.00 0.00 0.00 96 1011.8
20260509112720 22 12 6.4 17.7 0.00 0.00 0.00 96 1011.8
20260509112221 22 342 4.8 12.9 0.00 0.00 0.00 96 1011.7
20260509111720 22 5 8.0 11.3 0.00 0.00 0.00 96 1011.5
20260509111239 22 347 4.8 9.7 0.00 0.00 0.00 96 1011.4
20260509110640 22 5 1.6 6.4 0.00 0.00 0.00 96 1011.1
20260509110154 22 5 0.0 6.4 0.00 0.00 0.00 96 1011.1